| time (UTC) | temp F | wind direction | speed MPH | gust MPH | rain 1hr in | rain 24hr in | rain mn in | humidity % | barometer mb |
| 20260506172432 | 58 | 201 | 22.0 | 25.0 | 0.00 | 0.00 | 0.00 | 85 | 1011.0 |
| 20260506171928 | 58 | 215 | 23.0 | 24.0 | 0.00 | 0.00 | 0.00 | 85 | 1011.0 |
| 20260506171426 | 58 | 211 | 22.0 | 22.0 | 0.00 | 0.00 | 0.00 | 84 | 1011.7 |
| 20260506170924 | 59 | 198 | 20.0 | 23.0 | 0.00 | 0.00 | 0.00 | 84 | 1011.7 |
| 20260506170419 | 58 | 207 | 16.0 | 18.0 | 0.00 | 0.00 | 0.00 | 84 | 1011.7 |
| 20260506165913 | 58 | 204 | 20.0 | 23.0 | 0.00 | 0.00 | 0.00 | 84 | 1011.0 |
| 20260506165411 | 59 | 186 | 21.0 | 22.0 | 0.00 | 0.00 | 0.00 | 84 | 1011.0 |
| 20260506164907 | 59 | 192 | 16.0 | 19.0 | 0.00 | 0.00 | 0.00 | 84 | 1011.0 |
| 20260506164403 | 59 | 198 | 21.0 | 23.0 | 0.00 | 0.00 | 0.00 | 83 | 1011.7 |
| 20260506163901 | 59 | 210 | 21.0 | 23.0 | 0.00 | 0.00 | 0.00 | 83 | 1011.7 |
| 20260506163356 | 59 | 233 | 23.0 | 27.0 | 0.00 | 0.00 | 0.00 | 83 | 1011.7 |
| 20260506162851 | 59 | 215 | 16.0 | 18.0 | 0.00 | 0.00 | 0.00 | 83 | 1011.7 |
| 20260506162349 | 59 | 216 | 15.0 | 17.0 | 0.00 | 0.00 | 0.00 | 83 | 1011.7 |
| 20260506161841 | 59 | 216 | 20.0 | 21.0 | 0.00 | 0.00 | 0.00 | 83 | 1011.7 |
| 20260506161338 | 59 | 222 | 13.0 | 15.0 | 0.00 | 0.00 | 0.00 | 82 | 1012.0 |
| 20260506160835 | 60 | 228 | 17.0 | 19.0 | 0.00 | 0.00 | 0.00 | 82 | 1012.0 |
| 20260506160332 | 60 | 201 | 16.0 | 18.0 | 0.00 | 0.00 | 0.00 | 82 | 1012.0 |
| 20260506155830 | 59 | 233 | 11.0 | 12.0 | 0.00 | 0.00 | 0.00 | 82 | 1012.3 |
| 20260506155326 | 59 | 232 | 11.0 | 11.0 | 0.00 | 0.00 | 0.00 | 82 | 1012.3 |
| 20260506153439 | 59 | 207 | 6.0 | 7.0 | 0.00 | 0.00 | 0.00 | 82 | 1012.3 |
| 20260506152937 | 59 | 216 | 9.0 | 11.0 | 0.00 | 0.00 | 0.00 | 83 | 1012.3 |
| 20260506152433 | 59 | 236 | 11.0 | 12.0 | 0.00 | 0.00 | 0.00 | 81 | 1012.3 |
| 20260506151932 | 59 | 263 | 14.0 | 16.0 | 0.00 | 0.00 | 0.00 | 82 | 1012.3 |
| 20260506151428 | 58 | 246 | 8.0 | 9.0 | 0.00 | 0.00 | 0.00 | 82 | 1012.7 |
| 20260506150926 | 59 | 195 | 9.0 | 9.0 | 0.00 | 0.00 | 0.00 | 82 | 1012.7 |
| 20260506150422 | 59 | 245 | 13.0 | 14.0 | 0.00 | 0.00 | 0.00 | 82 | 1012.7 |
| 20260506145919 | 59 | 198 | 11.0 | 13.0 | 0.00 | 0.00 | 0.00 | 82 | 1012.7 |
| 20260506145415 | 59 | 295 | 12.0 | 13.0 | 0.00 | 0.00 | 0.00 | 82 | 1012.7 |
| 20260506144913 | 58 | 265 | 7.0 | 7.0 | 0.00 | 0.00 | 0.00 | 81 | 1012.7 |
| 20260506144409 | 58 | 283 | 7.0 | 7.0 | 0.00 | 0.00 | 0.00 | 83 | 1012.7 |
| 20260506143908 | 59 | 234 | 9.0 | 9.0 | 0.00 | 0.00 | 0.00 | 83 | 1012.7 |
| 20260506143404 | 58 | 226 | 7.0 | 8.0 | 0.00 | 0.00 | 0.00 | 82 | 1012.7 |
| 20260506142903 | 58 | 246 | 11.0 | 13.0 | 0.00 | 0.00 | 0.00 | 83 | 1012.7 |
| 20260506142401 | 58 | 194 | 14.0 | 16.0 | 0.00 | 0.00 | 0.00 | 84 | 1012.7 |
| 20260506141858 | 58 | 234 | 11.0 | 12.0 | 0.00 | 0.00 | 0.00 | 82 | 1012.7 |
| 20260506141356 | 58 | 285 | 8.0 | 9.0 | 0.00 | 0.00 | 0.00 | 84 | 1012.3 |
| 20260506140854 | 58 | 254 | 7.0 | 7.0 | 0.00 | 0.00 | 0.00 | 84 | 1012.3 |
| 20260506140351 | 58 | 238 | 11.0 | 12.0 | 0.00 | 0.00 | 0.00 | 84 | 1012.3 |
| 20260506135848 | 58 | 198 | 7.0 | 8.0 | 0.00 | 0.00 | 0.00 | 83 | 1012.0 |
| 20260506135344 | 58 | 246 | 16.0 | 21.0 | 0.00 | 0.00 | 0.00 | 82 | 1012.0 |
| 20260506134840 | 58 | 207 | 13.0 | 15.0 | 0.00 | 0.00 | 0.00 | 84 | 1012.0 |
| 20260506134337 | 58 | 205 | 19.0 | 20.0 | 0.00 | 0.00 | 0.00 | 84 | 1012.3 |
| 20260506133834 | 59 | 234 | 11.0 | 12.0 | 0.00 | 0.00 | 0.00 | 84 | 1012.3 |
| 20260506133331 | 58 | 222 | 17.0 | 19.0 | 0.00 | 0.00 | 0.00 | 84 | 1012.3 |
| 20260506132828 | 58 | 222 | 15.0 | 16.0 | 0.00 | 0.00 | 0.00 | 83 | 1012.7 |
| 20260506132325 | 58 | 228 | 12.0 | 14.0 | 0.00 | 0.00 | 0.00 | 85 | 1012.7 |
| 20260506131823 | 58 | 240 | 12.0 | 13.0 | 0.00 | 0.00 | 0.00 | 83 | 1012.7 |
| 20260506131319 | 58 | 233 | 8.0 | 9.0 | 0.00 | 0.00 | 0.00 | 84 | 1012.7 |
| 20260506130816 | 58 | 245 | 9.0 | 13.0 | 0.00 | 0.00 | 0.00 | 84 | 1012.7 |
| 20260506130312 | 58 | 244 | 13.0 | 14.0 | 0.00 | 0.00 | 0.00 | 83 | 1012.7 |
| 20260506125811 | 58 | 232 | 9.0 | 9.0 | 0.00 | 0.00 | 0.00 | 85 | 1012.7 |
| 20260506125308 | 58 | 232 | 13.0 | 15.0 | 0.00 | 0.00 | 0.00 | 84 | 1012.7 |
| 20260506124807 | 58 | 288 | 11.0 | 12.0 | 0.00 | 0.00 | 0.00 | 85 | 1012.7 |
| 20260506124303 | 58 | 192 | 16.0 | 16.0 | 0.00 | 0.00 | 0.00 | 84 | 1012.7 |
| 20260506123801 | 58 | 238 | 15.0 | 17.0 | 0.00 | 0.00 | 0.00 | 85 | 1012.7 |
| 20260506123300 | 58 | 201 | 9.0 | 11.0 | 0.00 | 0.00 | 0.00 | 86 | 1012.7 |
| 20260506122756 | 58 | 198 | 8.0 | 8.0 | 0.00 | 0.00 | 0.00 | 86 | 1012.7 |
| 20260506122253 | 58 | 216 | 12.0 | 13.0 | 0.00 | 0.00 | 0.00 | 86 | 1012.7 |
| 20260506121751 | 57 | 210 | 17.0 | 18.0 | 0.00 | 0.00 | 0.00 | 87 | 1012.7 |
| 20260506121248 | 57 | 198 | 15.0 | 16.0 | 0.00 | 0.00 | 0.00 | 87 | 1012.7 |
| 20260506120745 | 57 | 213 | 15.0 | 16.0 | 0.00 | 0.00 | 0.00 | 87 | 1012.7 |
| 20260506120243 | 58 | 198 | 12.0 | 13.0 | 0.00 | 0.00 | 0.00 | 86 | 1012.7 |
| 20260506115740 | 57 | 217 | 7.0 | 9.0 | 0.00 | 0.00 | 0.00 | 87 | 1013.0 |
| 20260506115238 | 57 | 216 | 8.0 | 9.0 | 0.00 | 0.00 | 0.00 | 87 | 1013.0 |
| 20260506114736 | 57 | 198 | 5.0 | 5.0 | 0.00 | 0.00 | 0.00 | 88 | 1013.0 |
| 20260506114233 | 56 | 286 | 6.0 | 7.0 | 0.00 | 0.00 | 0.00 | 89 | 1012.7 |
| 20260506113732 | 56 | 278 | 11.0 | 12.0 | 0.00 | 0.00 | 0.00 | 89 | 1012.7 |
| 20260506113229 | 56 | 192 | 13.0 | 15.0 | 0.00 | 0.00 | 0.00 | 89 | 1012.7 |
| 20260506112725 | 56 | 264 | 6.0 | 7.0 | 0.00 | 0.00 | 0.00 | 89 | 1013.0 |
| 20260506112223 | 56 | 210 | 15.0 | 16.0 | 0.00 | 0.00 | 0.00 | 90 | 1013.0 |
| 20260506111720 | 56 | 192 | 6.0 | 6.0 | 0.00 | 0.00 | 0.00 | 90 | 1013.0 |
| 20260506111218 | 56 | 244 | 11.0 | 12.0 | 0.00 | 0.00 | 0.00 | 90 | 1013.0 |
| 20260506110714 | 56 | 305 | 6.0 | 7.0 | 0.00 | 0.00 | 0.00 | 91 | 1013.0 |
| 20260506110212 | 56 | 210 | 6.0 | 7.0 | 0.00 | 0.00 | 0.00 | 91 | 1013.0 |
| 20260506105709 | 56 | 305 | 9.0 | 12.0 | 0.00 | 0.00 | 0.00 | 91 | 1012.7 |
| 20260506105206 | 55 | 186 | 11.0 | 13.0 | 0.00 | 0.00 | 0.00 | 91 | 1012.7 |
| 20260506104704 | 55 | 213 | 6.0 | 7.0 | 0.00 | 0.00 | 0.00 | 91 | 1012.7 |
| 20260506104201 | 55 | 282 | 9.0 | 9.0 | 0.00 | 0.00 | 0.00 | 92 | 1012.7 |
| 20260506103658 | 55 | 301 | 12.0 | 13.0 | 0.00 | 0.00 | 0.00 | 92 | 1012.7 |
| 20260506103155 | 55 | 276 | 9.0 | 9.0 | 0.00 | 0.00 | 0.00 | 91 | 1012.7 |
| 20260506102653 | 55 | 204 | 19.0 | 21.0 | 0.00 | 0.00 | 0.00 | 91 | 1012.7 |
| 20260506102150 | 55 | 210 | 13.0 | 16.0 | 0.00 | 0.00 | 0.00 | 91 | 1012.7 |
| 20260506101647 | 56 | 201 | 25.0 | 28.0 | 0.00 | 0.00 | 0.00 | 91 | 1012.7 |
| 20260506101144 | 56 | 198 | 13.0 | 15.0 | 0.00 | 0.00 | 0.00 | 91 | 1012.3 |
| 20260506100642 | 56 | 222 | 15.0 | 16.0 | 0.00 | 0.00 | 0.00 | 91 | 1012.3 |
| 20260506100140 | 56 | 217 | 20.0 | 22.0 | 0.00 | 0.00 | 0.00 | 91 | 1012.3 |
| 20260506095638 | 56 | 211 | 13.0 | 14.0 | 0.00 | 0.00 | 0.00 | 90 | 1012.3 |
| 20260506095134 | 56 | 204 | 25.0 | 26.0 | 0.00 | 0.00 | 0.00 | 91 | 1012.3 |
| 20260506094632 | 56 | 227 | 18.0 | 21.0 | 0.00 | 0.00 | 0.00 | 91 | 1012.3 |
| 20260506094130 | 56 | 240 | 11.0 | 11.0 | 0.00 | 0.00 | 0.00 | 91 | 1012.7 |
| 20260506093628 | 56 | 180 | 22.0 | 23.0 | 0.00 | 0.00 | 0.00 | 91 | 1012.7 |
| 20260506093125 | 56 | 218 | 11.0 | 13.0 | 0.00 | 0.00 | 0.00 | 91 | 1012.7 |
| 20260506092623 | 56 | 204 | 18.0 | 20.0 | 0.00 | 0.00 | 0.00 | 91 | 1012.7 |
| 20260506092120 | 56 | 162 | 19.0 | 21.0 | 0.00 | 0.00 | 0.00 | 91 | 1012.7 |
| 20260506091618 | 56 | 237 | 17.0 | 19.0 | 0.00 | 0.00 | 0.00 | 91 | 1012.7 |
| 20260506091115 | 56 | 218 | 16.0 | 18.0 | 0.00 | 0.00 | 0.00 | 91 | 1012.7 |
| 20260506090613 | 56 | 222 | 13.0 | 14.0 | 0.00 | 0.00 | 0.00 | 90 | 1012.7 |
| 20260506090108 | 56 | 212 | 25.0 | 27.0 | 0.00 | 0.00 | 0.00 | 90 | 1012.7 |
| 20260506085606 | 56 | 201 | 6.0 | 6.0 | 0.00 | 0.00 | 0.00 | 90 | 1013.0 |
| 20260506085102 | 57 | 216 | 21.0 | 25.0 | 0.00 | 0.00 | 0.00 | 89 | 1013.0 |
| 20260506084559 | 57 | 222 | 19.0 | 21.0 | 0.00 | 0.00 | 0.00 | 89 | 1013.0 |
| 20260506084055 | 57 | 216 | 11.0 | 14.0 | 0.00 | 0.00 | 0.00 | 89 | 1013.0 |
| 20260506083552 | 57 | 222 | 13.0 | 15.0 | 0.00 | 0.00 | 0.00 | 89 | 1013.0 |
| 20260506083050 | 57 | 204 | 23.0 | 25.0 | 0.00 | 0.00 | 0.00 | 89 | 1013.0 |
| 20260506082546 | 57 | 210 | 15.0 | 16.0 | 0.00 | 0.00 | 0.00 | 88 | 1013.0 |
| 20260506082042 | 57 | 234 | 11.0 | 12.0 | 0.00 | 0.00 | 0.00 | 88 | 1013.0 |
| 20260506081540 | 57 | 236 | 15.0 | 19.0 | 0.00 | 0.00 | 0.00 | 88 | 1013.0 |
| 20260506081037 | 57 | 228 | 7.0 | 8.0 | 0.00 | 0.00 | 0.00 | 88 | 1013.0 |
| 20260506080535 | 57 | 207 | 14.0 | 16.0 | 0.00 | 0.00 | 0.00 | 88 | 1013.0 |
| 20260506073519 | 56 | 198 | 12.0 | 13.0 | 0.00 | 0.00 | 0.00 | 89 | 1013.0 |
| 20260506073016 | 56 | 241 | 8.0 | 8.0 | 0.00 | 0.00 | 0.00 | 89 | 1013.0 |
| 20260506072513 | 56 | 250 | 9.0 | 11.0 | 0.00 | 0.00 | 0.00 | 89 | 1013.0 |
| 20260506072010 | 56 | 226 | 11.0 | 12.0 | 0.00 | 0.00 | 0.00 | 88 | 1013.0 |
| 20260506071508 | 56 | 218 | 13.0 | 14.0 | 0.00 | 0.00 | 0.00 | 88 | 1013.4 |
| 20260506071005 | 56 | 239 | 11.0 | 14.0 | 0.00 | 0.00 | 0.00 | 88 | 1013.4 |
| 20260506070502 | 56 | 243 | 8.0 | 9.0 | 0.00 | 0.00 | 0.00 | 89 | 1013.4 |
| 20260506062439 | 56 | 228 | 7.0 | 8.0 | 0.00 | 0.00 | 0.00 | 88 | 1013.4 |
| 20260506061935 | 56 | 262 | 5.0 | 5.0 | 0.00 | 0.00 | 0.00 | 88 | 1013.4 |
| 20260506061432 | 56 | 275 | 4.0 | 4.0 | 0.00 | 0.00 | 0.00 | 88 | 1013.4 |
| 20260506060930 | 57 | 290 | 6.0 | 7.0 | 0.00 | 0.00 | 0.00 | 88 | 1013.4 |
| 20260506060428 | 57 | 232 | 12.0 | 14.0 | 0.00 | 0.00 | 0.00 | 88 | 1013.4 |
| 20260506051400 | 58 | 238 | 16.0 | 17.0 | 0.00 | 0.00 | 0.00 | 85 | 1013.7 |
| 20260506050857 | 58 | 207 | 20.0 | 23.0 | 0.00 | 0.00 | 0.00 | 85 | 1013.7 |
| 20260506050355 | 58 | 234 | 20.0 | 22.0 | 0.00 | 0.00 | 0.00 | 84 | 1013.7 |
| 20260506044845 | 58 | 204 | 13.0 | 14.0 | 0.00 | 0.00 | 0.00 | 85 | 1013.7 |
| 20260506044343 | 58 | 198 | 11.0 | 12.0 | 0.00 | 0.00 | 0.00 | 85 | 1013.7 |
| 20260506043840 | 58 | 213 | 16.0 | 18.0 | 0.00 | 0.00 | 0.00 | 84 | 1013.7 |
| 20260506043337 | 58 | 238 | 15.0 | 17.0 | 0.00 | 0.00 | 0.00 | 83 | 1013.7 |
| 20260506042835 | 58 | 228 | 16.0 | 20.0 | 0.00 | 0.00 | 0.00 | 83 | 1013.7 |
| 20260506042334 | 57 | 228 | 13.0 | 15.0 | 0.00 | 0.00 | 0.00 | 84 | 1013.7 |
| 20260506041832 | 58 | 222 | 11.0 | 13.0 | 0.00 | 0.00 | 0.00 | 83 | 1013.7 |
| 20260506041329 | 58 | 238 | 13.0 | 14.0 | 0.00 | 0.00 | 0.00 | 82 | 1013.7 |
| 20260506040826 | 58 | 204 | 27.0 | 31.0 | 0.00 | 0.00 | 0.00 | 82 | 1013.7 |
| 20260506040323 | 58 | 238 | 13.0 | 15.0 | 0.00 | 0.00 | 0.00 | 82 | 1013.7 |
| 20260506035820 | 57 | 259 | 12.0 | 13.0 | 0.00 | 0.00 | 0.00 | 81 | 1013.7 |
| 20260506035317 | 57 | 202 | 16.0 | 18.0 | 0.00 | 0.00 | 0.00 | 82 | 1013.7 |
| 20260506034814 | 58 | 227 | 13.0 | 17.0 | 0.00 | 0.00 | 0.00 | 81 | 1013.7 |
| 20260506034311 | 58 | 243 | 13.0 | 15.0 | 0.00 | 0.00 | 0.00 | 80 | 1014.0 |
| 20260506033808 | 57 | 213 | 23.0 | 25.0 | 0.00 | 0.00 | 0.00 | 82 | 1014.0 |
| 20260506033305 | 57 | 248 | 12.0 | 13.0 | 0.00 | 0.00 | 0.00 | 83 | 1014.0 |
| 20260506032802 | 57 | 270 | 13.0 | 14.0 | 0.00 | 0.00 | 0.00 | 83 | 1013.7 |
| 20260506032259 | 57 | 264 | 11.0 | 12.0 | 0.00 | 0.00 | 0.00 | 83 | 1013.7 |
| 20260506031755 | 57 | 268 | 15.0 | 16.0 | 0.00 | 0.00 | 0.00 | 82 | 1013.7 |
| 20260506031253 | 56 | 343 | 6.0 | 6.0 | 0.00 | 0.00 | 0.00 | 83 | 1013.7 |
| 20260506030751 | 56 | 259 | 7.0 | 7.0 | 0.00 | 0.00 | 0.00 | 83 | 1013.7 |
| 20260506030249 | 57 | 268 | 8.0 | 9.0 | 0.00 | 0.00 | 0.00 | 82 | 1013.7 |
| 20260506025745 | 57 | 246 | 11.0 | 12.0 | 0.00 | 0.00 | 0.00 | 83 | 1013.4 |
| 20260506025241 | 56 | 264 | 4.0 | 5.0 | 0.00 | 0.00 | 0.00 | 82 | 1013.4 |
| 20260506024738 | 56 | 228 | 9.0 | 11.0 | 0.00 | 0.00 | 0.00 | 82 | 1013.4 |
| 20260506024235 | 56 | 278 | 9.0 | 9.0 | 0.00 | 0.00 | 0.00 | 82 | 1013.4 |
| 20260506023731 | 56 | 312 | 7.0 | 8.0 | 0.00 | 0.00 | 0.00 | 82 | 1013.4 |
| 20260506023229 | 56 | 310 | 5.0 | 6.0 | 0.00 | 0.00 | 0.00 | 82 | 1013.4 |
| 20260506022725 | 56 | 308 | 5.0 | 5.0 | 0.00 | 0.00 | 0.00 | 82 | 1013.7 |
| 20260506022223 | 56 | 288 | 7.0 | 8.0 | 0.00 | 0.00 | 0.00 | 81 | 1013.7 |
| 20260506021721 | 56 | 305 | 6.0 | 7.0 | 0.00 | 0.00 | 0.00 | 81 | 1013.7 |
| 20260506021218 | 56 | 284 | 9.0 | 9.0 | 0.00 | 0.00 | 0.00 | 81 | 1013.4 |
| 20260506020714 | 56 | 294 | 8.0 | 8.0 | 0.00 | 0.00 | 0.00 | 81 | 1013.4 |
| 20260506020212 | 56 | 283 | 4.0 | 5.0 | 0.00 | 0.00 | 0.00 | 82 | 1013.4 |
| 20260506015710 | 56 | 358 | 2.0 | 2.0 | 0.00 | 0.00 | 0.00 | 81 | 1013.4 |
| 20260506015207 | 56 | 294 | 9.0 | 11.0 | 0.00 | 0.00 | 0.00 | 81 | 1013.4 |
| 20260506014704 | 56 | 336 | 4.0 | 4.0 | 0.00 | 0.00 | 0.00 | 81 | 1013.4 |
| 20260506014200 | 56 | 312 | 7.0 | 7.0 | 0.00 | 0.00 | 0.00 | 81 | 1013.0 |
| 20260506013658 | 56 | 304 | 4.0 | 4.0 | 0.00 | 0.00 | 0.00 | 81 | 1013.0 |
| 20260506013155 | 56 | 298 | 6.0 | 6.0 | 0.00 | 0.00 | 0.00 | 81 | 1013.0 |
| 20260506012651 | 56 | 312 | 6.0 | 7.0 | 0.00 | 0.00 | 0.00 | 81 | 1012.7 |
| 20260506012148 | 56 | 42 | 2.0 | 2.0 | 0.00 | 0.00 | 0.00 | 81 | 1012.7 |
| 20260506011645 | 56 | 306 | 7.0 | 7.0 | 0.00 | 0.00 | 0.00 | 81 | 1012.7 |
| 20260506011141 | 56 | 252 | 6.0 | 7.0 | 0.00 | 0.00 | 0.00 | 81 | 1012.7 |
| 20260506010640 | 56 | 291 | 8.0 | 8.0 | 0.00 | 0.00 | 0.00 | 81 | 1012.7 |
| 20260506010137 | 56 | 287 | 6.0 | 7.0 | 0.00 | 0.00 | 0.00 | 81 | 1012.7 |
| 20260506005633 | 56 | 264 | 12.0 | 13.0 | 0.00 | 0.00 | 0.00 | 79 | 1012.7 |
| 20260506005130 | 56 | 204 | 14.0 | 16.0 | 0.00 | 0.00 | 0.00 | 79 | 1012.7 |
| 20260506004621 | 56 | 244 | 11.0 | 12.0 | 0.00 | 0.00 | 0.00 | 80 | 1012.7 |
| 20260506004118 | 56 | 269 | 9.0 | 11.0 | 0.00 | 0.00 | 0.00 | 81 | 1012.3 |
| 20260506003614 | 56 | 241 | 4.0 | 4.0 | 0.00 | 0.00 | 0.00 | 80 | 1012.3 |
| 20260506003110 | 56 | 263 | 7.0 | 8.0 | 0.00 | 0.00 | 0.00 | 80 | 1012.3 |
| 20260506002606 | 56 | 290 | 6.0 | 7.0 | 0.00 | 0.00 | 0.00 | 80 | 1012.0 |
| 20260506002103 | 57 | 234 | 6.0 | 6.0 | 0.00 | 0.00 | 0.00 | 80 | 1012.0 |
| 20260506001559 | 57 | 282 | 6.0 | 7.0 | 0.00 | 0.00 | 0.00 | 80 | 1012.0 |
| 20260506001056 | 57 | 269 | 6.0 | 7.0 | 0.00 | 0.00 | 0.00 | 79 | 1012.0 |
| 20260506000553 | 57 | 246 | 9.0 | 11.0 | 0.00 | 0.00 | 0.00 | 79 | 1012.0 |
| 20260506000051 | 58 | 227 | 6.0 | 6.0 | 0.00 | 0.00 | 0.00 | 78 | 1011.7 |
| 20260505235549 | 58 | 219 | 15.0 | 16.0 | 0.00 | 0.00 | 0.00 | 77 | 1011.7 |
| 20260505235045 | 59 | 234 | 13.0 | 14.0 | 0.00 | 0.00 | 0.00 | 77 | 1011.7 |
| 20260505234542 | 58 | 217 | 18.0 | 22.0 | 0.00 | 0.00 | 0.00 | 76 | 1011.7 |
| 20260505234039 | 58 | 204 | 16.0 | 18.0 | 0.00 | 0.00 | 0.00 | 77 | 1011.7 |
| 20260505233537 | 58 | 222 | 11.0 | 12.0 | 0.00 | 0.00 | 0.00 | 78 | 1011.7 |
| 20260505233034 | 58 | 228 | 8.0 | 8.0 | 0.00 | 0.00 | 0.00 | 77 | 1012.0 |
| 20260505232532 | 59 | 252 | 16.0 | 17.0 | 0.00 | 0.00 | 0.00 | 76 | 1012.0 |
| 20260505232029 | 59 | 232 | 16.0 | 18.0 | 0.00 | 0.00 | 0.00 | 76 | 1012.0 |
| 20260505231526 | 58 | 204 | 12.0 | 13.0 | 0.00 | 0.00 | 0.00 | 76 | 1012.0 |
| 20260505231025 | 58 | 233 | 9.0 | 9.0 | 0.00 | 0.00 | 0.00 | 77 | 1012.0 |
| 20260505230521 | 58 | 204 | 9.0 | 11.0 | 0.00 | 0.00 | 0.00 | 76 | 1012.0 |
| 20260505230018 | 58 | 230 | 15.0 | 17.0 | 0.00 | 0.00 | 0.00 | 76 | 1012.0 |
| 20260505225515 | 58 | 230 | 9.0 | 9.0 | 0.00 | 0.00 | 0.00 | 76 | 1012.0 |
| 20260505225011 | 59 | 252 | 9.0 | 9.0 | 0.00 | 0.00 | 0.00 | 76 | 1012.0 |
| 20260505224508 | 59 | 249 | 6.0 | 7.0 | 0.00 | 0.00 | 0.00 | 76 | 1011.7 |
| 20260505224005 | 59 | 241 | 9.0 | 9.0 | 0.00 | 0.00 | 0.00 | 74 | 1011.7 |
| 20260505223502 | 59 | 224 | 13.0 | 16.0 | 0.00 | 0.00 | 0.00 | 75 | 1011.7 |
| 20260505222958 | 59 | 207 | 19.0 | 20.0 | 0.00 | 0.00 | 0.00 | 75 | 1011.3 |
| 20260505222455 | 59 | 204 | 11.0 | 11.0 | 0.00 | 0.00 | 0.00 | 76 | 1011.3 |
| 20260505221950 | 58 | 234 | 13.0 | 15.0 | 0.00 | 0.00 | 0.00 | 76 | 1011.3 |
| 20260505221448 | 58 | 199 | 13.0 | 16.0 | 0.00 | 0.00 | 0.00 | 76 | 1011.3 |
| 20260505220945 | 57 | 204 | 8.0 | 8.0 | 0.00 | 0.00 | 0.00 | 78 | 1011.3 |
| 20260505220442 | 57 | 222 | 6.0 | 7.0 | 0.00 | 0.00 | 0.00 | 78 | 1011.3 |
| 20260505215939 | 57 | 227 | 7.0 | 7.0 | 0.00 | 0.00 | 0.00 | 79 | 1012.0 |
| 20260505215438 | 57 | 220 | 9.0 | 9.0 | 0.00 | 0.00 | 0.00 | 78 | 1012.0 |
| 20260505214935 | 58 | 238 | 9.0 | 9.0 | 0.00 | 0.00 | 0.00 | 78 | 1012.0 |
| 20260505214433 | 58 | 220 | 9.0 | 9.0 | 0.00 | 0.00 | 0.00 | 78 | 1011.7 |
| 20260505213929 | 58 | 222 | 11.0 | 12.0 | 0.00 | 0.00 | 0.00 | 76 | 1011.7 |
| 20260505213427 | 59 | 198 | 17.0 | 21.0 | 0.00 | 0.00 | 0.00 | 75 | 1011.7 |
| 20260505212923 | 59 | 241 | 11.0 | 12.0 | 0.00 | 0.00 | 0.00 | 75 | 1011.3 |
| 20260505212421 | 59 | 204 | 13.0 | 13.0 | 0.00 | 0.00 | 0.00 | 75 | 1011.3 |
| 20260505211916 | 58 | 207 | 13.0 | 15.0 | 0.00 | 0.00 | 0.00 | 75 | 1011.3 |
| 20260505211414 | 57 | 190 | 4.0 | 4.0 | 0.00 | 0.00 | 0.00 | 78 | 1011.3 |
| 20260505210910 | 59 | 160 | 7.0 | 7.0 | 0.00 | 0.00 | 0.00 | 75 | 1011.3 |
| 20260505210408 | 58 | 211 | 8.0 | 9.0 | 0.00 | 0.00 | 0.00 | 77 | 1011.3 |
| 20260505205905 | 58 | 186 | 2.0 | 2.0 | 0.00 | 0.00 | 0.00 | 78 | 1011.0 |
| 20260505205403 | 57 | 227 | 5.0 | 5.0 | 0.00 | 0.00 | 0.00 | 78 | 1011.0 |
| 20260505204859 | 57 | 144 | 5.0 | 5.0 | 0.00 | 0.00 | 0.00 | 79 | 1011.0 |
| 20260505204357 | 57 | 168 | 6.0 | 6.0 | 0.00 | 0.00 | 0.00 | 78 | 1011.3 |
| 20260505203855 | 58 | 168 | 5.0 | 5.0 | 0.00 | 0.00 | 0.00 | 77 | 1011.3 |
| 20260505203350 | 61 | 168 | 12.0 | 13.0 | 0.00 | 0.00 | 0.00 | 72 | 1011.3 |
| 20260505202847 | 61 | 222 | 9.0 | 9.0 | 0.00 | 0.00 | 0.00 | 73 | 1011.0 |
| 20260505202343 | 61 | 215 | 9.0 | 9.0 | 0.00 | 0.00 | 0.00 | 74 | 1011.0 |
| 20260505201840 | 61 | 215 | 12.0 | 15.0 | 0.00 | 0.00 | 0.00 | 73 | 1011.0 |
| 20260505201337 | 61 | 242 | 4.0 | 5.0 | 0.00 | 0.00 | 0.00 | 73 | 1011.7 |
| 20260505200836 | 60 | 201 | 6.0 | 6.0 | 0.00 | 0.00 | 0.00 | 74 | 1011.7 |
| 20260505200332 | 60 | 228 | 15.0 | 16.0 | 0.00 | 0.00 | 0.00 | 74 | 1011.7 |
| 20260505195828 | 62 | 244 | 13.0 | 14.0 | 0.00 | 0.00 | 0.00 | 71 | 1011.7 |
| 20260505195325 | 60 | 216 | 6.0 | 6.0 | 0.00 | 0.00 | 0.00 | 74 | 1011.7 |
| 20260505194822 | 60 | 195 | 9.0 | 9.0 | 0.00 | 0.00 | 0.00 | 75 | 1011.7 |
| 20260505194319 | 61 | 240 | 13.0 | 14.0 | 0.00 | 0.00 | 0.00 | 72 | 1011.3 |
| 20260505193814 | 60 | 228 | 8.0 | 9.0 | 0.00 | 0.00 | 0.00 | 74 | 1011.3 |
| 20260505193313 | 60 | 238 | 9.0 | 9.0 | 0.00 | 0.00 | 0.00 | 75 | 1011.3 |
| 20260505192810 | 59 | 214 | 12.0 | 13.0 | 0.00 | 0.00 | 0.00 | 76 | 1012.0 |
| 20260505192310 | 59 | 189 | 13.0 | 13.0 | 0.00 | 0.00 | 0.00 | 77 | 1012.0 |
| 20260505191806 | 59 | 201 | 13.0 | 13.0 | 0.00 | 0.00 | 0.00 | 78 | 1012.0 |
| 20260505191304 | 59 | 211 | 11.0 | 13.0 | 0.00 | 0.00 | 0.00 | 78 | 1012.0 |
| 20260505190800 | 59 | 244 | 6.0 | 7.0 | 0.00 | 0.00 | 0.00 | 78 | 1012.0 |
| 20260505190255 | 58 | 219 | 13.0 | 13.0 | 0.00 | 0.00 | 0.00 | 78 | 1012.0 |
| 20260505185752 | 59 | 192 | 14.0 | 16.0 | 0.00 | 0.00 | 0.00 | 77 | 1012.0 |
| 20260505185248 | 60 | 228 | 9.0 | 11.0 | 0.00 | 0.00 | 0.00 | 74 | 1012.0 |
| 20260505184744 | 59 | 228 | 14.0 | 16.0 | 0.00 | 0.00 | 0.00 | 76 | 1012.0 |
| 20260505184242 | 59 | 174 | 8.0 | 9.0 | 0.00 | 0.00 | 0.00 | 78 | 1012.0 |
| 20260505183738 | 59 | 186 | 7.0 | 8.0 | 0.00 | 0.00 | 0.00 | 77 | 1012.0 |
| 20260505183236 | 58 | 213 | 9.0 | 11.0 | 0.00 | 0.00 | 0.00 | 78 | 1012.0 |
| 20260505182732 | 58 | 192 | 13.0 | 14.0 | 0.00 | 0.00 | 0.00 | 79 | 1012.0 |
| 20260505182229 | 58 | 211 | 6.0 | 6.0 | 0.00 | 0.00 | 0.00 | 77 | 1012.0 |
| 20260505181725 | 58 | 180 | 9.0 | 9.0 | 0.00 | 0.00 | 0.00 | 80 | 1012.0 |
| 20260505181223 | 57 | 186 | 8.0 | 9.0 | 0.00 | 0.00 | 0.00 | 79 | 1012.0 |
| 20260505180720 | 57 | 192 | 11.0 | 12.0 | 0.00 | 0.00 | 0.00 | 81 | 1012.0 |
| 20260505180216 | 56 | 180 | 9.0 | 11.0 | 0.00 | 0.00 | 0.00 | 81 | 1012.0 |
| 20260505175713 | 56 | 198 | 11.0 | 13.0 | 0.00 | 0.00 | 0.00 | 82 | 1012.3 |
| 20260505175209 | 56 | 186 | 13.0 | 14.0 | 0.00 | 0.00 | 0.00 | 82 | 1012.3 |
| 20260505174706 | 56 | 228 | 13.0 | 15.0 | 0.00 | 0.00 | 0.00 | 83 | 1012.3 |
| 20260505174202 | 55 | 198 | 16.0 | 18.0 | 0.00 | 0.00 | 0.00 | 84 | 1012.3 |
| 20260505173659 | 55 | 192 | 13.0 | 14.0 | 0.00 | 0.00 | 0.00 | 83 | 1012.3 |
| 20260505173155 | 56 | 168 | 11.0 | 12.0 | 0.00 | 0.00 | 0.00 | 81 | 1012.3 |